ECMWFFLT1_250_spd_057.txt.gz
Wind_Speed
39 44 43 39 39 39 37 36 38 39 39 38 36 34 33 32 33 37 39 36 33 35 37 38 38 37 34 29 29 34 35 31 31 33 33 33 33 32 32 32 33 32 32 31 31 32 33 34 34 34 34 33 33 34 34 34 33 33 32 31 30 29 29
42 45 47 44 40 38 38 40 41 42 41 40 39 37 36 32 31 35 36 36 36 37 38 40 40 37 33 30 33 36 34 33 35 35 35 36 35 34 34 34 34 34 33 33 33 33 34 34 34 34 33 32 32 33 34 33 33 33 32 31 32 32 32
48 44 45 45 42 38 39 41 43 45 44 43 42 39 35 31 30 34 36 38 38 37 39 42 40 36 32 32 36 37 35 36 38 37 37 36 35 35 36 36 36 35 35 34 34 34 34 35 35 35 34 33 33 33 33 32 32 32 33 33 33 34 34
53 47 42 42 42 41 41 42 44 45 44 44 44 40 33 29 31 36 39 39 38 38 41 43 40 36 34 35 38 38 37 39 39 37 36 35 34 34 36 36 35 35 36 36 35 35 35 35 35 36 35 34 33 33 32 32 32 34 35 34 34 35 35
54 50 44 41 42 43 43 45 47 46 44 44 42 38 33 32 35 39 39 38 38 39 42 43 40 37 36 38 40 39 39 39 38 35 34 33 32 33 34 34 34 34 36 36 36 36 35 35 36 36 35 34 34 33 32 32 34 35 36 35 36 36 36
52 50 47 43 43 44 44 45 47 47 45 43 40 37 36 36 39 41 39 38 39 41 43 42 39 38 40 42 42 40 39 39 37 33 32 31 31 32 34 34 34 34 35 36 36 36 36 36 36 36 35 35 34 34 33 33 34 36 37 37 37 37 37
48 48 47 46 45 45 44 45 46 46 45 43 39 38 38 40 42 41 39 39 40 41 41 41 41 42 44 43 41 39 39 39 35 31 30 30 29 32 33 34 35 35 35 36 36 37 37 37 37 36 36 35 35 34 34 34 36 37 38 37 37 38 38
46 46 46 47 46 45 44 45 45 45 44 43 40 39 40 41 41 40 39 38 38 39 41 43 44 44 43 41 39 39 41 39 33 30 29 27 27 29 30 31 31 31 33 35 36 37 37 37 37 37 36 37 37 36 36 36 38 39 39 38 38 38 39
45 47 48 48 46 45 44 43 44 44 44 43 42 41 40 40 39 38 37 37 39 41 44 45 44 42 40 41 41 41 41 38 32 29 27 26 26 26 25 26 26 27 29 32 35 36 37 37 37 38 37 37 38 39 39 40 40 41 41 40 40 40 39
46 48 49 49 48 47 45 44 43 43 43 42 42 42 42 42 39 36 37 39 42 44 45 44 43 42 43 44 42 41 39 35 32 29 27 26 26 26 25 25 26 28 29 30 32 34 36 37 37 38 38 38 39 40 41 42 42 42 42 42 41 41 40
48 49 49 49 49 47 45 45 44 43 42 42 44 45 45 44 41 38 39 41 43 44 44 43 44 45 47 46 42 40 37 34 32 29 27 27 28 28 28 28 28 30 31 31 30 31 33 36 37 38 38 39 40 41 41 42 43 43 43 43 42 42 42
46 48 49 50 51 47 44 43 44 43 44 46 47 48 47 44 40 40 41 41 42 43 45 47 49 50 49 46 42 40 37 34 32 29 28 29 29 29 29 30 30 31 32 31 30 30 31 33 35 37 38 39 40 41 42 42 43 44 44 43 43 43 43
43 45 48 51 53 53 50 47 46 45 47 49 51 50 47 43 41 41 42 43 44 45 48 51 52 50 48 46 42 38 35 33 31 29 29 30 31 31 31 31 32 32 32 31 29 29 30 32 34 36 37 39 40 41 42 42 43 44 44 44 44 44 43
41 42 45 49 52 55 56 56 54 52 50 50 49 48 46 45 44 44 45 46 47 48 50 52 51 50 48 45 40 36 34 32 31 31 31 31 32 32 32 33 33 33 31 30 29 30 30 32 33 35 37 38 40 42 43 43 43 45 45 45 44 43 43
40 41 43 47 50 53 56 59 60 59 56 53 50 49 48 48 48 49 50 50 51 51 52 53 52 51 47 42 38 36 35 34 34 34 33 32 32 33 33 35 34 33 31 29 29 31 31 32 33 34 35 37 39 42 44 44 44 44 45 45 43 43 42
38 38 39 43 48 53 56 58 59 60 60 58 56 55 54 53 53 53 52 52 52 52 53 52 50 47 44 41 39 38 38 38 37 35 34 33 33 34 35 36 34 32 30 29 29 30 32 33 34 34 34 36 38 41 43 43 42 43 44 44 42 42 42
36 35 36 40 47 53 57 58 59 60 60 59 58 57 55 54 53 52 51 50 50 50 49 48 46 44 43 42 41 41 40 39 37 35 34 34 35 36 36 34 33 31 29 29 29 30 32 34 35 35 36 37 39 40 40 39 38 40 42 43 42 42 43
40 37 35 38 45 50 53 56 57 58 58 56 54 53 52 51 50 49 48 47 46 46 46 45 45 44 44 44 43 43 42 39 36 35 35 35 36 36 34 32 31 29 29 29 28 30 33 35 37 38 38 39 40 41 40 37 36 37 37 39 40 40 40
39 38 34 36 44 49 50 52 54 55 56 54 52 49 48 48 47 46 45 45 46 47 47 46 46 45 46 45 45 43 41 38 36 35 35 35 35 35 33 32 30 29 29 29 29 30 32 36 38 39 39 40 40 40 39 38 37 36 35 36 38 37 37
33 36 36 40 46 50 50 52 53 53 53 53 52 50 48 48 49 50 50 50 49 48 47 47 47 47 47 46 44 42 39 37 36 34 35 35 35 35 34 33 32 31 31 31 31 31 33 35 37 38 40 41 40 38 37 37 38 38 37 37 39 40 40
32 34 37 41 48 53 54 55 54 54 54 54 53 52 49 49 51 54 55 54 52 49 48 48 48 48 47 46 43 40 38 37 35 34 35 37 37 37 37 36 35 34 34 34 34 34 34 36 38 39 41 41 39 36 36 37 37 38 37 37 39 41 42
35 36 36 39 45 52 54 55 56 57 57 56 55 54 52 51 53 56 57 56 53 51 50 50 49 48 47 44 41 39 37 37 36 36 37 39 40 40 39 38 38 37 36 36 36 37 38 39 40 41 41 41 39 36 35 35 37 38 38 38 39 41 43
36 39 39 41 47 52 52 51 52 54 54 54 53 53 51 51 53 56 56 54 52 50 50 49 48 47 45 42 40 39 38 38 38 38 40 41 42 41 41 41 40 39 38 38 38 40 41 42 42 42 41 40 40 38 36 35 36 38 40 40 42 43 45
39 43 44 45 50 53 51 50 51 51 50 51 51 51 50 51 53 54 52 50 49 48 48 47 47 46 44 43 42 41 40 40 40 41 41 42 43 43 43 42 41 39 39 40 41 42 44 44 44 42 41 40 40 40 39 38 39 40 42 43 45 47 48
43 46 46 46 49 51 50 50 52 53 53 52 52 52 52 52 52 51 49 49 48 48 47 47 46 46 45 45 44 43 42 42 43 43 43 44 45 45 44 42 41 40 41 43 44 45 45 45 45 43 42 41 41 42 43 43 43 44 45 46 48 49 51
44 44 44 46 51 53 51 50 51 54 54 54 54 53 53 52 51 50 50 50 49 49 48 48 48 48 47 46 45 44 44 44 44 45 46 47 47 46 44 42 42 43 44 46 47 47 46 46 46 45 44 43 43 45 46 47 47 47 48 49 51 53 54
46 45 44 47 52 54 52 52 53 54 55 56 56 55 53 53 51 50 50 50 49 49 48 48 48 48 48 47 45 45 45 45 47 48 49 49 48 48 46 44 44 46 48 49 49 48 48 48 48 47 46 46 46 47 48 49 50 50 52 54 55 57 58
48 48 47 48 50 50 49 50 51 51 53 55 56 55 54 52 51 50 50 49 48 48 48 48 48 48 47 46 45 45 46 47 49 51 52 51 51 50 49 48 48 50 51 52 52 51 51 50 49 49 49 49 50 50 51 52 53 55 57 58 59 61 62
50 50 50 49 49 49 49 50 51 53 55 56 56 55 53 50 49 49 49 48 48 48 48 49 48 48 47 47 47 48 49 50 52 54 54 54 53 52 51 52 53 55 55 55 55 55 54 52 51 51 51 52 53 54 55 56 58 59 60 60 61 62 64
55 52 52 52 52 52 52 53 55 55 56 57 57 56 53 51 50 49 49 49 49 49 49 49 48 48 49 49 50 52 53 55 56 56 55 54 53 53 53 55 58 60 60 59 59 57 55 54 53 53 54 55 56 57 59 59 60 60 61 62 63 64 66
60 56 54 55 55 55 54 54 55 55 56 57 57 55 55 53 51 50 50 49 49 49 49 50 51 52 53 54 56 58 58 58 58 57 57 56 55 55 56 59 61 63 63 62 61 58 55 54 53 54 55 57 58 59 60 61 61 62 63 65 67 69 72
64 60 57 57 57 57 56 56 57 58 58 57 56 55 55 54 52 51 51 50 51 52 54 55 56 58 59 60 60 61 61 60 60 60 59 58 58 59 61 63 65 65 65 63 61 58 56 55 55 56 58 59 60 61 62 63 64 66 67 69 72 75 79
66 64 62 60 60 61 60 60 59 59 59 58 57 57 57 56 55 55 55 55 56 58 60 60 61 61 62 62 62 62 62 63 63 63 62 61 62 63 65 67 68 67 65 62 59 58 58 58 59 60 61 62 63 64 65 67 68 70 72 75 79 82 85
65 64 64 63 63 63 64 63 62 60 60 59 59 59 59 59 60 60 60 60 62 63 64 64 64 63 63 63 63 64 66 67 66 65 64 64 66 67 69 70 70 67 63 60 59 59 59 60 62 63 64 64 66 67 69 72 74 76 79 82 85 87 89
66 63 62 62 63 63 63 63 62 61 61 60 60 60 61 61 62 62 61 61 61 61 62 64 65 65 65 65 66 67 68 67 66 65 65 67 69 71 72 70 68 65 62 61 60 60 61 62 63 65 66 68 71 73 76 78 80 82 84 86 88 89 90
69 66 63 61 61 61 60 59 59 59 59 60 60 60 60 61 61 62 61 61 60 60 61 63 65 66 67 68 68 68 68 68 68 69 70 71 71 70 69 66 64 63 62 63 63 63 64 66 68 70 73 75 78 79 81 82 84 85 87 88 90 91 94
69 69 68 66 64 63 61 60 58 55 54 56 58 59 60 60 61 62 62 63 63 64 66 67 68 69 70 70 70 70 69 69 70 70 70 69 67 65 64 64 64 65 66 68 69 70 72 74 76 78 80 81 83 83 84 85 86 87 89 90 93 96 101

ECMWFFLT1_250_spd_060.txt.gz
Wind_Speed
40 39 38 37 36 32 28 28 29 32 34 33 32 32 31 32 33 33 33 32 31 30 30 30 34 38 37 35 35 36 36 38 37 34 33 34 37 40 38 35 34 33 30 29 31 33 35 35 35 35 34 34 33 33 32 31 30 29 28 28 27 26 26
42 40 40 41 40 37 32 30 31 34 36 37 36 34 32 31 34 35 32 30 30 30 29 29 33 37 38 37 37 37 38 39 38 36 35 36 40 41 37 35 33 30 29 29 29 31 33 34 34 35 35 35 34 33 32 31 30 29 28 27 26 26 28
44 40 40 42 43 42 37 32 33 35 36 38 38 37 34 31 34 36 35 32 32 32 31 30 31 36 38 38 38 38 39 40 38 37 36 38 41 40 36 34 32 28 28 28 28 30 31 33 34 35 36 36 35 34 33 32 31 29 28 27 26 27 30
48 44 41 42 43 43 40 34 33 34 35 37 39 38 37 35 35 38 39 39 38 36 34 31 31 35 38 38 37 38 39 40 39 37 37 40 40 37 35 34 30 27 27 26 26 28 29 30 32 34 35 36 36 36 34 33 31 29 28 28 27 28 30
47 48 47 47 46 44 42 38 34 33 34 37 39 39 39 38 39 40 41 42 40 38 34 30 32 36 38 38 37 38 40 40 39 39 39 40 38 35 35 33 29 27 26 25 25 25 26 27 29 32 33 35 35 36 35 33 31 30 30 29 29 29 30
38 44 48 51 52 49 46 44 41 38 37 38 38 38 39 39 40 41 42 42 41 37 33 32 36 38 38 39 39 38 39 40 40 40 40 38 36 35 35 33 30 27 26 25 24 23 24 26 28 30 32 33 34 34 34 33 31 31 31 31 31 31 32
31 37 44 50 53 52 49 47 46 44 44 43 40 38 40 41 42 43 43 44 41 36 34 36 39 40 39 40 39 38 39 41 40 40 40 38 36 36 36 34 31 28 27 26 24 24 25 27 28 30 31 32 32 33 33 32 31 31 31 32 32 33 35
32 35 38 42 48 51 50 48 47 46 47 47 45 42 41 41 42 43 44 44 40 35 35 39 41 41 40 38 37 38 41 41 40 41 41 40 39 38 37 36 32 29 28 27 26 26 27 28 29 30 31 31 31 31 31 31 30 30 31 32 33 34 36
36 38 38 39 42 45 48 48 45 44 44 46 46 44 42 40 40 41 41 40 38 36 38 41 42 40 39 38 38 40 41 41 41 41 40 41 41 39 38 36 32 30 29 29 28 28 29 30 31 30 31 30 30 31 31 30 30 30 32 32 33 34 35
39 39 39 41 39 37 43 46 46 45 44 44 43 43 42 40 38 38 37 36 35 36 37 38 39 39 38 39 39 39 40 41 41 40 41 43 43 41 39 35 31 30 30 30 30 30 30 32 32 31 31 30 30 31 31 30 30 30 32 33 33 34 35
38 38 39 41 38 35 40 45 46 46 46 44 42 41 41 39 38 37 36 36 35 35 36 37 38 39 38 38 37 38 41 41 40 41 43 44 43 41 38 33 31 31 31 31 31 31 32 33 33 32 31 31 31 31 31 30 29 30 32 34 34 35 36
32 34 36 38 36 33 36 40 44 46 46 44 43 42 41 40 39 39 37 36 37 37 38 39 40 39 38 38 38 39 40 41 41 43 44 44 43 41 36 32 31 32 31 31 32 33 34 34 33 32 32 32 32 32 31 30 30 30 32 34 35 36 38
29 30 33 32 29 28 30 36 42 46 47 45 44 42 42 42 41 41 39 38 39 39 40 41 42 41 40 40 41 40 41 43 44 45 45 44 43 39 34 32 32 32 32 32 33 34 35 35 33 32 33 33 32 31 31 30 29 30 32 34 36 37 38
27 27 29 26 23 25 30 34 38 44 47 46 45 44 44 44 42 40 39 39 41 42 43 44 45 44 43 43 42 43 44 46 47 47 46 45 42 38 34 33 33 33 32 32 33 34 35 35 33 32 33 33 32 31 30 29 29 30 32 35 37 37 36
24 24 23 22 24 30 34 33 35 43 46 45 46 47 47 47 46 45 44 44 45 46 46 45 45 44 44 44 46 47 47 47 47 46 45 44 40 37 35 35 35 33 32 33 34 34 35 34 32 32 31 31 31 31 31 30 30 31 33 36 37 36 34
25 25 24 21 26 34 35 31 36 45 46 44 46 48 48 49 50 50 49 48 48 48 46 45 45 46 48 50 50 49 47 45 44 44 43 41 39 38 37 37 36 34 33 33 34 34 33 33 32 31 31 31 31 31 31 31 32 32 34 36 37 37 35
27 26 27 25 27 34 35 31 38 48 48 45 44 45 47 49 48 48 49 49 49 50 50 51 52 53 52 51 48 46 44 43 42 41 41 41 40 39 39 38 37 35 34 33 33 32 31 31 31 31 31 32 32 31 31 32 33 34 35 36 37 37 36
27 27 29 28 29 34 35 34 38 45 48 46 43 41 42 44 44 46 47 50 52 53 54 54 52 50 48 45 44 44 42 41 41 42 42 42 41 41 40 39 37 35 33 32 32 31 30 31 31 32 32 32 33 33 32 32 33 35 36 36 36 37 36
27 28 28 27 29 32 34 35 36 39 45 48 45 41 39 40 43 46 48 50 51 51 50 48 46 44 43 42 42 42 41 41 43 43 43 43 42 42 41 39 36 34 33 32 31 31 31 31 32 33 33 33 33 33 33 32 34 35 36 37 37 36 36
30 30 28 27 30 32 34 36 36 38 43 49 48 44 41 41 43 46 47 48 47 46 44 43 42 42 42 41 42 42 43 44 45 44 44 44 43 42 41 39 36 34 32 32 31 31 32 32 33 34 34 33 33 33 33 34 35 37 38 38 37 36 35
33 33 31 30 31 34 36 37 39 41 44 49 50 47 45 44 44 45 45 45 44 44 43 42 42 42 43 44 45 46 46 46 45 45 45 45 44 43 41 38 35 33 32 32 32 33 33 33 34 35 34 33 33 34 34 35 36 38 39 39 38 36 35
34 35 34 33 33 36 37 38 41 45 48 50 51 48 47 48 47 46 45 44 44 44 44 44 44 45 45 46 46 47 47 47 46 46 46 45 44 42 40 37 36 34 33 33 34 35 35 35 36 37 35 34 34 35 35 36 37 39 40 39 39 37 36
34 34 34 35 36 36 37 38 43 47 48 49 49 47 46 48 50 50 48 48 48 48 49 49 48 49 49 48 48 48 48 47 47 47 46 44 43 41 39 38 37 36 35 35 36 36 36 37 38 39 36 35 35 36 37 38 39 40 40 40 40 39 38
35 32 33 36 37 37 38 40 45 48 49 48 48 48 47 49 54 56 53 50 50 51 53 53 52 51 50 49 48 48 47 47 47 46 44 43 42 40 39 39 37 37 37 37 37 38 39 41 42 40 38 37 37 37 38 40 41 42 42 42 42 42 41
37 33 33 36 38 39 40 42 47 52 52 51 51 52 52 54 57 58 53 50 51 52 52 52 50 49 48 48 48 47 47 47 46 45 44 43 42 41 40 40 39 39 39 39 39 40 42 45 45 42 41 40 39 39 40 42 44 45 46 46 45 44 44
40 36 37 38 39 41 41 43 49 54 54 53 53 54 54 53 55 56 52 50 53 53 52 51 50 50 50 50 50 49 49 47 46 47 45 43 42 42 42 41 41 41 41 41 42 43 44 47 47 46 45 45 43 43 45 46 47 49 50 49 48 46 46
43 39 38 40 40 42 44 46 50 53 54 54 54 53 52 51 53 56 55 53 55 56 56 55 55 55 54 53 52 50 48 48 48 48 47 45 44 44 43 43 43 43 43 43 44 46 47 48 48 49 48 47 47 47 49 51 52 53 54 52 51 49 49
49 43 40 42 44 46 49 51 53 54 54 55 56 56 56 55 56 58 58 57 57 59 59 58 57 57 55 54 52 49 47 48 49 49 48 48 47 45 44 44 45 45 45 46 47 49 50 49 50 50 50 50 50 52 54 55 57 58 58 56 54 52 51
54 50 46 46 49 51 52 55 58 59 59 59 60 59 58 57 56 57 58 58 59 59 58 56 56 55 55 54 52 50 48 50 51 51 50 50 49 47 46 46 47 48 49 49 51 52 52 52 52 52 52 53 54 56 57 59 61 61 61 59 57 55 54
58 56 53 53 54 55 55 57 58 60 61 62 60 58 57 57 58 60 62 62 62 60 58 57 56 55 54 54 52 51 51 51 52 52 51 50 50 49 49 48 49 51 52 53 53 53 53 54 54 55 56 57 58 59 60 62 63 64 63 61 59 58 58
59 57 57 59 60 59 59 60 60 60 60 60 59 57 58 59 61 63 64 64 63 63 62 61 59 57 56 56 55 54 53 52 52 52 51 51 51 51 52 52 53 54 55 56 56 55 55 56 57 58 60 60 61 62 64 65 66 66 65 63 61 60 60
60 59 60 62 64 63 63 64 63 61 60 58 58 58 59 60 62 63 63 62 61 61 61 60 58 56 55 55 55 54 54 53 53 53 52 52 52 53 55 57 58 58 58 58 58 58 59 60 61 62 62 63 64 65 67 68 68 68 66 64 62 61 62
61 61 63 65 65 65 66 66 65 63 59 57 57 59 60 61 62 62 62 61 60 59 58 57 56 55 55 54 54 54 54 54 54 54 54 54 55 56 58 60 61 60 59 59 60 61 62 62 63 64 65 66 67 68 69 70 69 67 65 63 62 63 65
62 64 66 67 67 66 66 66 67 65 61 58 58 59 59 61 62 63 63 62 61 59 58 57 57 56 55 55 55 55 55 56 57 57 57 57 57 59 61 62 62 61 61 61 63 64 65 66 66 67 68 70 71 71 71 70 67 65 63 63 65 68 71
66 67 68 68 69 67 65 64 65 65 63 61 60 60 61 62 63 64 64 63 61 60 59 59 58 58 57 57 56 57 58 59 60 61 61 61 61 62 63 63 63 63 64 65 66 67 68 69 70 71 72 73 73 72 69 68 66 65 65 68 71 74 77
70 70 71 71 72 71 67 65 65 65 65 64 62 61 61 62 64 65 66 65 64 63 62 61 61 60 60 60 60 61 63 64 65 65 66 66 65 65 65 66 66 67 67 68 69 70 71 73 74 75 75 74 72 69 67 67 67 68 71 74 77 80 82
73 73 73 74 76 76 74 71 69 68 68 67 65 62 60 60 61 62 63 64 65 66 67 67 66 65 65 65 65 66 67 69 69 70 70 70 69 69 68 69 69 70 71 72 73 74 75 76 75 74 73 71 69 69 69 70 72 74 77 80 82 84 85

ECMWFFLT1_250_spd_063.txt.gz
Wind_Speed
38 40 40 42 42 40 39 40 41 41 36 30 26 21 21 24 27 29 31 31 30 29 28 28 28 28 28 29 30 29 29 32 34 32 31 31 30 31 34 37 37 35 34 34 34 34 31 29 27 25 26 26 27 28 29 30 30 31 31 31 31 30 30
37 40 42 44 42 37 37 39 41 43 40 33 27 22 22 25 28 31 31 31 30 29 28 28 28 29 30 31 31 30 30 33 34 32 33 33 31 32 35 37 36 35 34 34 35 35 32 30 27 26 26 27 28 28 29 30 30 30 30 30 30 30 29
39 42 43 43 41 37 37 40 41 41 40 34 26 23 23 24 28 32 32 31 31 29 28 28 29 31 32 31 30 29 29 31 32 33 34 33 31 33 36 37 36 35 34 34 35 35 33 31 28 27 28 29 29 29 30 31 30 30 30 29 29 29 28
40 44 45 43 40 38 38 40 41 41 40 37 30 27 27 26 29 32 32 32 33 31 30 30 30 31 32 30 30 30 29 29 32 34 35 33 32 34 37 37 36 36 35 34 36 36 34 32 30 30 30 30 30 31 31 32 31 30 29 29 28 27 27
38 41 43 42 40 40 40 41 42 42 42 41 35 30 28 29 34 35 32 32 34 34 35 35 34 34 34 35 35 33 31 30 31 34 34 33 34 36 37 37 36 36 36 35 36 37 36 33 32 31 32 31 31 32 32 33 32 31 29 28 27 27 26
35 35 36 38 39 41 42 42 42 41 40 40 38 36 33 32 35 36 32 31 32 34 36 37 37 38 38 39 39 36 33 32 32 33 34 33 35 37 38 38 37 37 38 36 36 38 37 34 33 32 33 32 32 32 33 33 33 32 30 28 26 26 25
35 33 31 32 35 39 42 43 42 41 39 38 37 38 40 40 40 38 35 32 31 33 35 37 39 40 40 41 40 37 35 34 34 33 33 34 36 37 38 38 38 38 39 37 37 38 38 35 33 33 34 33 32 33 33 34 33 32 31 28 26 26 25
36 34 30 28 29 32 34 35 36 37 38 40 40 40 42 44 45 44 43 39 37 35 36 38 40 41 41 41 39 38 36 35 35 35 36 36 36 35 36 37 38 39 39 38 38 39 38 35 33 34 35 34 33 33 33 34 34 33 31 29 27 26 25
37 35 32 29 27 27 28 27 28 29 31 35 39 43 45 45 45 44 45 44 43 42 41 40 40 40 40 40 39 39 38 37 37 38 37 35 33 33 33 35 38 39 39 39 39 39 37 34 33 35 35 34 33 33 33 34 34 33 32 30 28 27 26
38 36 35 33 30 29 28 27 26 26 26 29 32 36 40 42 42 40 40 41 43 44 44 42 38 36 36 36 37 38 38 37 37 37 35 32 31 31 31 34 37 39 40 39 39 39 35 33 33 35 35 34 33 33 32 33 34 33 31 30 28 27 26
41 39 37 35 32 29 26 26 25 22 23 26 30 33 36 38 39 39 38 38 40 42 42 40 36 32 32 32 33 33 34 34 34 34 32 31 31 31 32 35 38 40 41 40 39 36 34 33 34 35 35 34 33 32 32 32 34 33 31 29 28 27 26
41 40 37 35 31 28 26 25 24 23 23 26 30 35 39 40 39 39 39 38 38 40 40 38 35 31 31 30 30 30 30 31 31 32 32 32 32 33 35 39 40 41 40 39 37 34 33 34 35 36 35 35 34 32 31 32 34 33 31 29 28 28 27
40 38 34 32 33 32 29 27 25 26 29 30 32 34 38 40 39 37 38 39 39 40 39 38 35 31 30 30 30 30 31 31 32 33 33 34 34 35 39 41 40 40 38 37 35 34 34 36 36 37 36 35 34 32 31 32 33 33 31 29 28 28 28
38 36 31 31 35 34 31 28 26 29 33 34 35 36 35 38 39 35 35 37 38 40 40 38 36 33 32 32 32 33 33 34 35 35 35 35 36 39 42 41 39 37 35 35 35 35 36 37 38 38 36 35 34 32 31 32 33 33 32 30 30 30 30
37 36 32 31 34 33 31 32 30 31 35 36 36 36 35 39 39 36 35 36 37 38 39 37 36 35 35 35 35 35 36 37 37 36 36 37 41 42 41 38 37 35 34 35 36 37 38 39 39 39 36 35 33 31 31 31 32 32 33 32 31 30 31
36 38 36 34 33 32 34 36 35 34 37 39 38 34 34 39 41 39 38 38 37 39 39 39 38 39 40 40 40 39 39 38 37 37 39 42 43 41 38 37 36 34 34 36 38 39 39 40 41 39 37 35 32 30 30 31 31 32 33 32 31 30 30
36 41 40 37 35 33 35 36 36 37 39 42 43 38 36 41 44 43 43 42 41 40 41 42 43 44 44 44 44 41 38 38 40 42 43 43 40 38 36 37 36 35 35 37 39 40 40 41 41 40 38 35 32 31 30 30 30 31 30 30 29 28 29
38 42 43 41 36 33 34 34 36 40 41 43 46 45 42 43 44 45 47 47 47 45 44 45 46 47 47 46 45 42 40 41 43 43 41 39 37 36 36 37 36 36 37 38 39 40 41 42 41 39 37 35 34 32 30 30 30 29 28 28 27 27 28
41 44 46 43 38 34 34 34 36 39 42 44 46 46 46 45 44 45 47 48 49 50 48 45 45 47 48 47 45 43 41 42 41 39 37 36 36 35 36 37 38 39 40 40 40 41 42 42 41 39 37 36 35 34 32 31 31 29 27 26 27 27 28
44 47 48 43 38 36 35 35 36 37 39 42 46 48 47 44 44 46 47 47 48 50 47 42 40 41 43 44 43 40 39 39 38 37 36 35 35 36 37 39 40 41 41 40 41 41 42 43 41 39 38 37 37 36 35 33 32 30 28 28 28 27 28
46 49 49 43 35 33 34 37 39 38 38 41 46 51 51 46 44 47 47 46 47 48 48 44 41 40 40 39 39 38 38 38 37 36 36 36 37 39 40 41 41 42 41 41 41 42 42 42 40 39 39 38 38 38 37 35 33 32 31 31 31 30 30
47 49 48 42 36 32 33 37 40 40 41 41 44 51 54 50 47 48 48 49 51 51 52 51 48 44 41 39 38 38 38 39 38 38 39 40 40 41 42 42 42 42 42 42 42 41 41 40 39 39 40 40 40 40 38 37 36 35 34 34 34 34 33
49 50 49 46 41 37 35 37 39 39 41 43 43 47 54 55 54 53 53 53 56 56 55 55 51 46 44 43 42 41 41 41 42 42 43 43 43 43 44 43 42 42 42 42 41 41 41 40 39 40 40 41 42 41 39 39 39 39 38 38 37 37 37
51 52 51 48 45 41 39 41 41 40 42 45 45 45 51 56 59 59 58 55 55 54 53 51 49 47 47 46 45 44 44 44 44 44 45 45 45 44 43 42 41 41 42 43 42 41 42 41 41 41 41 42 43 42 41 41 42 42 42 41 40 41 41
53 54 52 48 46 44 42 40 39 40 44 47 48 47 49 53 56 57 57 54 52 51 50 50 49 48 47 46 46 48 49 48 46 46 47 46 44 43 42 42 43 43 44 44 43 43 43 42 42 42 43 44 44 43 42 43 44 45 45 44 44 44 45
55 55 52 49 48 46 42 38 37 41 45 47 49 50 50 51 53 54 53 52 51 52 52 52 51 50 47 47 49 52 54 53 52 51 50 48 46 45 45 46 46 46 46 45 44 44 44 45 44 43 44 46 46 44 44 45 46 47 47 47 47 48 49
54 53 51 49 50 48 45 42 39 42 46 48 50 51 51 51 52 52 51 52 53 54 54 54 55 54 53 52 52 52 53 53 53 52 52 51 50 49 49 49 48 47 47 47 46 45 46 47 46 46 46 47 47 46 47 48 49 50 50 50 50 51 52
52 52 50 50 50 49 48 48 47 46 47 49 52 54 52 52 52 51 52 53 54 55 56 56 55 54 54 54 51 50 51 52 53 54 54 53 52 51 51 50 49 49 48 47 47 47 48 49 48 48 48 48 48 49 49 51 53 53 53 52 53 54 55
52 51 51 51 51 49 49 49 49 49 49 50 53 55 54 54 54 54 54 55 56 56 57 57 55 54 53 52 52 52 54 55 56 55 55 54 53 51 51 51 51 50 50 49 48 49 50 51 50 49 49 49 50 51 52 54 56 56 56 55 55 56 57
51 51 51 51 52 52 52 50 47 47 50 52 53 56 56 56 56 55 55 56 57 58 58 59 58 57 57 56 55 57 58 57 57 57 56 56 56 54 54 53 53 52 51 50 50 50 52 52 52 52 52 52 53 54 55 57 58 58 58 58 58 58 60
52 52 53 53 52 51 53 53 50 48 51 53 54 57 59 58 57 56 56 58 59 60 61 61 60 60 61 61 61 62 62 60 59 60 60 61 60 59 58 56 56 56 55 54 53 53 53 54 55 55 56 55 56 56 58 59 60 60 60 61 61 62 63
53 55 57 58 56 54 53 54 54 54 55 55 56 59 60 60 59 58 57 58 59 60 62 63 63 63 64 64 65 66 66 64 62 63 64 64 64 62 61 60 60 60 58 57 56 56 56 57 58 59 58 58 58 59 60 61 62 63 63 64 64 65 66
55 57 60 62 62 61 58 57 57 58 59 58 59 60 59 59 60 59 58 59 60 61 62 64 64 64 65 66 66 67 67 66 66 67 67 67 66 65 64 64 63 61 59 58 58 58 58 59 60 60 60 60 61 62 63 63 64 65 65 66 67 68 69
57 60 64 64 64 64 64 62 60 60 61 62 62 62 60 59 59 59 58 59 61 63 63 64 65 65 65 65 66 68 69 69 69 70 70 70 69 68 67 65 64 62 61 59 59 59 59 60 60 61 61 62 63 64 65 65 66 67 68 69 70 71 71
61 61 64 67 66 66 67 66 63 62 63 64 65 66 65 64 63 64 63 64 65 66 65 65 66 66 66 65 66 67 68 68 68 68 68 68 68 67 66 66 65 64 62 61 60 60 60 60 61 62 63 64 66 67 67 68 68 70 71 72 73 73 73
66 63 63 66 68 69 70 67 64 62 63 65 66 66 66 65 66 67 68 68 69 69 68 67 67 67 67 66 66 66 65 65 64 64 64 65 65 65 66 66 66 65 64 62 61 61 61 62 63 64 66 67 69 69 70 71 72 73 73 74 75 76 77
69 66 64 66 68 70 69 67 64 63 63 65 65 64 63 64 65 66 66 67 68 68 67 66 65 65 65 65 64 64 64 63 63 64 64 65 64 64 65 65 65 64 64 64 63 63 64 65 66 68 69 71 72 73 73 74 74 75 75 77 78 79 79

ECMWFFLT1_250_spd_069.txt.gz
Wind_Speed
34 30 25 23 21 19 19 21 22 21 21 23 26 30 30 28 28 29 30 31 30 32 33 31 28 26 26 27 27 25 25 25 25 24 24 25 24 24 25 26 26 25 24 23 23 25 28 31 31 30 31 31 30 30 30 29 27 27 26 25 27 30 30
36 32 28 24 23 22 22 23 25 25 23 24 25 28 30 29 29 30 31 33 33 34 33 31 30 28 28 29 29 28 28 27 27 26 26 27 27 26 26 26 26 26 25 24 24 26 29 32 31 30 30 30 29 30 30 28 26 26 25 25 26 29 30
36 33 29 26 25 24 24 24 25 27 27 27 25 25 29 31 31 30 31 33 34 33 33 32 30 29 30 30 29 30 30 28 26 26 26 27 28 27 27 27 27 26 25 25 27 29 30 31 30 29 29 28 28 29 29 28 26 25 25 24 25 28 29
35 32 30 28 26 25 25 25 24 27 29 30 29 27 28 31 32 31 30 32 33 34 35 34 31 29 30 29 29 29 29 28 26 26 27 27 28 28 27 27 26 26 25 26 28 30 31 31 30 28 27 27 28 29 29 27 25 24 24 24 25 28 29
33 32 31 29 27 27 27 28 28 28 29 32 33 31 27 28 32 33 32 34 34 35 36 36 34 32 31 30 30 29 28 27 28 28 28 28 28 28 28 27 26 26 26 28 29 30 32 31 29 28 26 26 27 29 28 27 24 24 24 24 25 27 29
36 34 33 31 28 28 28 29 30 29 30 33 36 35 30 27 30 31 33 35 36 36 36 35 33 32 32 31 30 29 29 30 31 30 30 30 30 30 30 29 29 29 29 30 31 32 33 31 28 27 25 25 27 28 28 26 24 23 24 24 25 27 29
40 38 35 33 30 29 30 31 31 31 32 35 38 39 35 31 31 31 31 34 35 35 35 34 32 30 29 29 30 29 30 31 32 32 32 33 34 34 34 34 34 33 33 34 34 34 34 31 28 26 25 26 27 28 28 27 23 22 24 24 25 27 29
42 42 39 37 35 32 32 34 34 34 35 36 39 42 40 35 34 33 31 32 33 34 34 34 33 31 28 29 31 32 32 33 34 34 34 35 36 36 36 36 36 36 36 36 36 36 34 31 28 26 26 27 28 28 29 27 23 22 23 25 26 28 29
44 43 42 41 40 37 35 35 36 36 36 36 37 41 42 38 35 34 34 34 34 33 32 33 33 32 31 32 34 36 36 36 37 37 37 36 35 35 35 35 36 36 37 38 37 36 34 31 28 27 27 27 28 28 28 27 24 22 23 25 27 28 29
47 44 43 43 41 39 38 36 36 36 36 36 37 38 41 41 38 36 37 38 36 33 33 35 35 35 35 36 38 39 39 39 39 40 40 39 38 37 39 40 40 39 38 36 35 34 33 31 29 28 28 28 28 28 28 27 25 23 23 25 27 29 29
52 48 45 43 40 40 41 38 36 36 36 36 37 38 41 43 42 39 38 40 39 37 36 37 39 41 42 41 41 41 41 41 42 43 44 45 44 44 45 45 43 39 35 33 32 31 31 29 29 29 29 29 29 28 28 28 26 25 24 25 28 29 29
57 52 48 44 41 42 42 40 37 36 36 37 36 37 41 44 44 43 41 40 41 40 39 38 38 40 42 44 45 46 46 46 47 47 47 47 47 46 46 43 39 35 32 31 30 30 29 29 30 31 30 29 29 29 29 28 27 26 25 25 27 30 30
62 55 50 47 44 44 44 41 39 37 38 39 38 37 39 42 43 45 46 44 43 43 42 41 40 38 39 42 44 47 50 51 50 48 47 47 46 45 42 39 36 33 32 30 30 31 31 31 32 32 32 31 30 29 29 28 27 27 26 26 28 30 31
64 56 52 50 48 46 45 43 42 40 40 42 41 38 39 40 41 42 45 47 48 48 46 45 44 43 42 42 41 43 47 50 51 50 48 46 44 41 39 36 34 33 32 31 31 32 32 33 34 34 34 33 32 31 30 29 28 27 28 28 29 30 31
64 58 53 52 50 48 47 45 44 43 43 44 45 42 40 42 44 42 41 44 48 50 49 48 48 47 45 42 40 39 41 44 48 49 46 43 40 37 36 35 35 35 35 35 35 35 35 36 36 37 37 35 33 32 31 29 28 28 29 30 30 31 32
65 61 56 53 51 50 48 46 45 46 45 45 48 47 43 43 46 46 43 42 45 49 51 50 49 48 46 44 41 40 38 38 41 44 42 37 34 33 32 32 33 34 35 35 36 37 38 39 39 39 39 37 35 33 31 30 29 29 30 31 32 32 33
66 63 59 55 53 51 49 47 47 48 47 46 48 50 48 45 47 47 45 43 43 47 52 52 49 47 47 45 43 42 39 34 33 36 36 33 31 30 29 30 31 33 34 34 35 37 40 42 42 42 41 38 35 33 31 30 30 31 31 32 32 33 33
66 62 59 57 55 53 50 48 48 49 49 48 48 51 51 48 48 49 47 44 43 45 49 52 50 47 46 45 45 44 42 37 32 31 31 32 32 31 30 32 34 35 36 37 37 38 40 42 43 42 40 37 35 33 32 31 32 33 33 33 33 34 33
63 60 59 57 55 54 52 50 49 50 50 49 49 51 52 50 48 49 48 46 45 44 45 48 48 46 46 45 46 47 46 43 39 35 35 35 34 33 35 36 38 39 39 39 39 38 38 39 40 39 37 36 34 34 33 33 34 34 34 35 34 34 33
60 58 58 59 56 54 53 51 50 50 50 49 48 50 53 53 50 48 47 47 47 45 44 44 45 45 45 47 49 49 48 47 45 42 41 39 39 40 41 40 41 42 43 41 39 37 35 35 35 35 35 34 34 34 33 33 35 35 36 36 34 34 34
55 56 57 60 59 55 54 53 52 51 50 49 48 48 50 52 52 50 47 47 48 48 46 46 47 46 46 48 51 51 50 50 49 47 45 43 43 44 43 43 44 45 46 44 42 40 38 36 36 36 36 36 35 34 33 33 34 36 36 35 34 35 34
51 54 56 60 61 58 56 55 54 53 52 50 48 48 49 50 51 51 49 47 48 50 50 50 50 50 49 49 52 53 52 53 54 54 52 49 48 47 45 46 48 48 48 47 46 45 43 41 40 41 41 41 40 38 35 34 35 36 36 35 35 36 36
49 53 56 60 63 61 58 56 55 55 55 54 50 48 48 49 49 50 49 47 47 49 52 53 53 53 51 50 52 53 52 54 57 58 58 56 55 54 51 50 51 51 50 50 50 50 49 47 46 45 45 44 42 40 39 38 37 37 37 37 37 39 40
48 53 54 57 61 63 61 58 55 54 55 57 55 51 49 49 49 49 49 49 49 50 52 54 54 54 53 52 53 53 53 55 57 58 58 58 58 58 57 56 56 55 55 54 54 54 53 52 51 49 46 44 42 42 42 43 42 39 38 39 39 42 44
46 52 55 55 58 61 63 61 56 54 54 56 57 55 52 51 51 50 50 52 53 53 54 55 56 56 56 55 55 55 55 57 57 57 57 57 57 58 58 59 59 58 57 56 55 54 53 54 53 49 47 45 45 44 44 45 45 42 41 41 42 44 45
44 50 54 56 57 60 63 64 61 57 55 55 57 58 57 55 54 53 52 53 54 54 54 55 56 57 58 58 59 58 59 60 59 58 57 56 56 57 57 58 58 57 57 56 55 54 53 54 52 50 48 48 48 47 47 48 48 47 46 45 44 45 46
43 47 51 54 57 60 63 64 64 61 58 56 56 58 58 58 58 57 56 56 56 56 56 56 56 56 58 59 60 60 61 61 60 57 55 54 54 55 56 56 57 57 58 57 56 55 55 54 53 51 51 51 51 51 51 51 50 50 49 47 46 46 45
42 46 50 53 56 59 62 64 65 65 63 60 57 57 57 58 59 59 59 59 58 57 58 59 58 58 58 59 59 59 60 60 58 56 54 54 54 55 56 57 58 58 58 59 58 57 56 55 55 54 53 53 53 53 54 54 53 52 50 48 46 45 45
42 44 49 53 55 57 60 63 66 66 65 63 60 58 58 58 58 58 60 62 60 58 57 58 59 60 60 59 59 58 58 58 58 56 55 55 56 56 56 57 58 58 59 60 60 59 58 57 56 55 55 55 55 55 56 56 55 53 51 49 49 49 50
43 44 46 50 54 57 59 62 65 67 67 65 62 60 59 59 58 58 59 62 63 61 60 58 58 59 61 62 62 61 59 58 58 57 56 57 57 57 57 57 58 59 60 60 60 60 59 58 57 56 57 57 57 57 57 57 56 55 54 54 55 55 55
47 46 45 46 50 54 58 60 62 64 66 66 64 62 60 60 60 59 60 62 63 64 64 63 61 59 60 62 64 65 65 63 61 60 58 58 58 59 59 59 59 60 61 62 63 62 61 60 59 58 58 59 59 59 58 58 58 58 58 59 59 59 59
52 51 49 48 47 50 54 58 59 61 62 63 63 62 61 60 61 61 62 63 64 65 65 66 65 63 62 63 64 66 67 67 67 65 63 61 61 61 62 62 63 63 64 65 65 65 63 62 61 61 60 60 60 60 60 60 61 61 61 61 62 62 63
57 55 54 53 51 49 51 55 57 59 60 60 60 60 60 60 60 61 62 63 64 64 64 64 64 64 63 64 65 66 67 67 68 68 68 67 66 67 67 67 67 67 67 66 65 65 65 64 64 63 63 63 63 63 62 63 63 64 65 65 65 66 67
60 60 59 58 57 54 52 52 55 58 61 60 60 60 60 61 61 61 61 61 62 63 63 62 63 63 63 65 66 65 64 66 66 66 66 66 67 67 67 68 68 68 67 66 65 65 66 66 66 66 66 66 66 66 66 66 67 67 68 68 69 69 70
62 63 63 62 62 60 57 54 54 56 59 61 61 61 61 61 62 62 61 62 62 62 62 62 64 64 63 65 66 64 63 65 65 64 64 65 66 67 68 68 68 68 68 67 66 66 67 67 68 68 68 68 68 69 69 69 70 70 71 71 72 72 73
60 63 65 66 65 65 63 60 57 56 57 59 61 62 61 62 63 64 64 64 65 65 64 64 65 65 64 64 64 63 64 66 65 64 66 67 68 69 69 70 70 69 69 69 68 67 67 68 69 70 70 71 71 72 73 73 73 73 73 74 75 75 76
57 61 65 67 68 68 67 66 63 60 57 57 58 60 61 62 64 66 67 67 66 66 66 65 66 66 67 66 65 63 64 66 66 67 69 69 70 71 72 72 73 72 72 72 71 71 70 71 71 73 73 74 74 74 74 74 74 74 75 76 77 78 79

ECMWFFLT1_250_spd_072.txt.gz
Wind_Speed
44 42 41 39 36 31 26 21 20 22 26 28 28 28 27 25 25 26 25 24 21 24 30 34 34 34 34 33 31 29 28 27 26 24 23 24 26 27 25 24 25 26 27 28 28 28 27 26 25 25 25 28 29 29 28 27 27 27 28 27 25 23 22
45 44 43 43 40 36 32 26 22 23 27 30 31 30 29 27 27 26 27 26 24 25 30 33 35 35 33 32 31 30 31 31 28 26 24 25 27 29 27 26 27 28 29 30 29 28 28 27 27 27 27 29 30 29 28 27 27 28 29 28 26 23 22
47 44 44 44 42 40 38 31 26 26 28 32 32 32 32 32 32 30 27 26 25 27 29 32 35 35 32 33 33 32 33 33 30 27 24 25 28 29 28 28 28 28 29 29 29 28 28 28 28 27 28 30 30 30 28 27 26 28 29 30 27 24 22
50 47 45 45 42 40 40 37 31 29 29 32 34 34 34 35 36 33 29 27 27 27 30 32 35 36 35 35 35 33 33 34 33 28 23 25 28 28 28 28 27 27 28 28 28 28 28 27 27 27 29 31 31 31 29 27 26 27 30 30 28 24 23
52 51 50 50 46 41 41 40 36 33 30 32 36 37 36 36 36 35 32 32 33 33 33 33 34 36 35 35 34 33 33 34 34 28 24 26 29 28 28 28 27 27 28 28 28 28 27 27 27 28 30 32 32 31 29 27 26 27 30 31 28 25 23
54 53 53 53 50 44 42 41 39 35 31 31 37 41 39 37 36 35 35 35 36 37 36 35 35 35 35 34 32 31 31 32 32 30 28 29 29 29 29 28 29 29 29 30 30 30 29 29 30 31 32 33 33 32 30 28 27 28 30 31 29 26 24
56 55 54 54 52 46 43 43 40 37 32 31 37 43 43 39 37 36 36 36 35 36 37 37 37 37 36 34 31 30 28 30 32 31 31 30 30 30 32 33 33 33 33 34 33 33 34 33 33 33 33 35 34 33 30 28 28 29 30 31 30 27 25
58 58 57 56 54 48 45 45 42 38 36 34 38 44 44 42 40 38 36 35 36 37 37 37 37 38 38 35 31 29 28 31 34 33 31 30 30 32 34 35 35 35 36 37 37 37 37 34 33 33 34 35 35 34 31 29 29 30 30 32 31 28 26
60 61 60 59 56 51 48 48 45 41 40 38 39 44 46 44 42 41 39 37 37 38 39 39 39 39 40 37 33 31 32 34 37 36 34 32 31 33 35 36 38 38 39 38 37 37 35 34 35 36 36 35 35 34 32 30 30 30 31 32 32 30 27
61 63 63 61 58 53 50 50 49 46 44 42 40 43 47 47 45 44 43 42 40 41 42 42 42 40 39 37 35 35 36 38 38 38 36 35 35 35 36 38 39 41 40 39 38 37 37 39 40 38 35 34 34 33 31 30 31 31 31 32 33 31 29
61 64 65 65 62 58 54 54 53 50 48 46 43 43 45 48 48 46 46 46 45 44 44 45 42 39 38 37 38 38 38 38 38 38 37 38 39 37 37 39 41 42 42 40 40 40 42 43 41 36 33 33 32 31 30 30 32 33 32 32 33 32 31
56 61 65 67 66 63 60 58 56 52 49 48 47 45 44 46 48 49 49 50 49 47 45 45 43 40 39 38 38 38 38 38 38 38 38 39 41 39 39 40 43 44 42 40 39 40 41 41 37 34 33 33 32 32 31 32 33 34 33 32 33 34 33
51 55 61 66 68 66 64 63 59 54 51 50 49 47 45 45 46 50 51 51 52 51 48 45 44 43 42 40 38 36 37 38 37 37 38 41 42 43 43 44 46 47 44 41 39 38 39 38 35 34 34 34 34 34 34 34 34 34 35 34 35 36 35
49 50 54 61 66 67 67 65 61 56 51 50 50 48 47 46 45 48 51 49 49 51 51 46 43 44 44 43 40 37 37 37 37 38 40 42 43 44 44 45 47 48 48 46 43 41 41 39 36 35 35 36 36 36 36 36 36 36 37 37 37 37 36
46 47 49 55 62 66 68 67 64 59 53 50 50 49 48 48 46 47 49 48 45 46 51 50 46 45 46 46 43 41 40 39 39 41 42 42 41 41 40 42 44 46 48 48 47 44 42 38 35 33 34 34 34 35 37 38 39 40 41 41 40 38 37
42 44 45 49 57 63 67 68 66 63 58 53 51 50 49 49 47 46 46 46 43 42 47 50 49 47 48 48 46 44 43 42 42 43 44 42 41 40 40 41 43 44 45 45 44 42 38 34 31 30 30 30 31 33 37 39 42 43 43 43 41 39 38
40 40 42 44 51 59 65 67 67 66 63 57 53 51 50 50 48 46 46 45 43 41 43 46 48 48 49 50 50 49 48 47 46 47 47 46 44 43 43 42 42 42 42 41 39 38 34 31 30 31 31 31 31 33 36 39 41 42 42 42 40 39 39
38 38 39 40 45 54 61 66 67 67 65 60 56 53 52 52 50 47 47 47 45 43 43 44 46 47 48 49 50 51 51 51 51 50 49 48 47 45 44 43 40 37 36 37 37 36 34 32 32 34 35 35 35 36 37 38 38 38 38 38 38 39 39
35 35 35 36 40 48 57 64 66 66 65 62 58 55 53 54 52 49 47 48 47 46 46 46 47 49 49 48 48 48 48 50 53 53 51 50 50 49 49 47 44 37 33 34 36 36 35 34 36 38 39 39 39 39 39 40 39 38 37 37 38 39 40
33 33 33 33 36 43 53 62 65 65 65 62 58 56 55 55 54 51 48 48 48 48 49 50 52 53 53 51 50 47 45 46 50 52 53 52 53 54 53 51 49 44 39 37 38 38 38 37 38 41 42 42 42 42 42 42 41 40 39 39 40 41 42
30 30 30 31 33 39 48 58 64 65 65 63 59 57 57 56 55 53 50 49 49 47 48 52 54 55 55 55 53 49 46 45 47 51 53 52 53 54 54 53 52 50 48 46 42 41 40 40 41 43 44 44 45 45 45 44 44 43 43 43 44 44 45
29 28 28 29 32 36 44 54 62 65 65 64 60 58 58 56 56 55 53 52 51 48 47 50 53 54 55 55 54 50 48 47 48 50 52 52 53 53 52 53 52 52 54 53 48 45 44 44 45 45 46 48 49 48 47 46 47 47 48 48 47 46 46
28 27 27 27 30 34 41 50 58 63 65 65 61 58 58 58 57 56 54 53 53 52 51 51 53 54 54 54 53 50 50 50 49 50 52 53 55 55 53 53 53 53 56 57 56 53 52 51 50 50 51 52 52 50 50 49 49 50 50 49 48 48 47
29 27 26 26 28 33 39 46 54 60 63 64 62 58 57 58 58 57 56 55 54 54 54 55 56 57 56 54 52 48 49 51 51 50 51 53 56 57 56 54 55 56 58 59 58 58 58 57 57 56 56 56 55 54 52 51 50 50 49 49 49 50 50
30 28 27 26 27 31 37 44 50 56 61 63 62 59 58 58 58 58 57 56 55 54 54 56 58 58 58 57 54 50 48 51 53 52 52 53 55 56 55 55 56 57 59 58 58 58 59 59 59 58 57 57 57 55 54 52 51 50 50 50 51 53 53
32 30 29 28 27 29 35 42 48 52 57 61 62 61 59 57 56 56 56 55 54 54 55 57 57 57 56 57 56 54 51 51 54 55 54 55 55 55 54 54 55 56 57 57 57 57 58 58 58 57 57 57 56 55 54 53 52 52 52 52 53 55 56
35 33 31 30 30 30 33 40 46 50 54 59 62 63 60 58 55 54 55 55 54 55 57 58 57 56 56 55 55 55 55 56 58 57 57 57 57 57 57 55 56 56 56 56 56 57 57 57 57 58 57 57 56 55 55 54 53 54 54 55 56 57 57
37 37 35 34 33 33 34 37 44 49 52 56 61 63 62 59 57 55 54 54 55 57 58 58 57 57 57 56 55 56 57 59 60 58 58 59 59 60 59 58 59 59 58 57 57 57 58 58 58 59 58 58 58 57 57 56 56 56 57 57 58 59 58
39 40 39 37 36 36 37 38 41 46 50 53 57 62 64 62 59 57 55 55 56 58 59 58 58 58 59 58 58 59 60 61 61 59 59 59 59 59 59 59 60 60 60 59 58 57 59 60 60 60 60 60 60 60 60 59 58 58 58 58 59 60 59
41 42 43 42 40 39 40 42 43 45 48 51 54 58 62 63 61 59 57 55 56 58 60 61 60 61 62 61 60 62 62 61 62 61 61 61 60 59 59 59 60 60 60 60 58 58 60 61 62 62 61 62 62 62 62 61 60 60 59 59 60 61 61
43 43 45 46 45 44 43 44 46 47 48 50 52 55 59 62 62 61 59 57 57 59 61 63 64 64 65 64 64 64 64 63 63 63 64 64 64 62 62 62 63 63 63 62 61 61 62 63 63 63 63 63 63 64 64 63 63 62 61 61 62 63 62
46 45 46 48 49 48 47 47 48 50 52 52 52 54 56 60 62 63 62 60 59 60 62 64 65 65 65 66 66 66 66 65 64 64 65 67 67 66 66 67 68 67 67 66 64 64 65 65 65 64 64 65 65 66 66 65 65 64 64 64 66 66 64
49 47 47 49 51 52 52 51 50 51 54 55 56 55 56 58 61 64 65 63 61 60 61 61 61 61 62 64 65 66 67 66 65 64 65 66 67 67 69 69 69 69 69 69 67 67 67 67 67 66 67 67 67 68 68 68 67 67 67 68 69 68 67
52 50 49 50 52 54 55 55 55 54 54 56 58 59 58 59 61 63 65 66 65 63 61 60 59 59 60 62 62 64 66 68 68 67 66 66 65 66 69 69 68 70 71 71 71 71 70 70 70 70 70 70 71 71 71 71 71 71 71 71 70 70 69
56 54 53 52 53 55 57 58 59 59 58 57 58 60 62 62 62 63 64 66 67 66 64 62 60 59 60 61 60 61 64 66 67 68 69 69 69 69 70 70 69 71 72 73 73 73 72 72 72 73 74 74 73 74 74 75 75 75 74 73 72 71 71
59 58 57 56 55 57 59 60 62 63 63 61 60 60 62 64 64 64 64 66 67 68 67 66 64 62 62 62 61 62 63 62 63 66 68 70 71 72 72 72 71 71 71 72 72 73 73 73 73 73 73 72 72 73 75 76 76 75 74 73 73 72 73
61 61 61 60 59 59 60 62 64 65 67 67 65 62 62 63 65 66 66 66 67 68 68 69 67 66 65 64 64 65 65 63 62 64 66 68 70 71 71 71 71 71 70 70 70 70 70 71 72 73 73 73 73 75 75 76 75 75 74 74 74 74 74

ECMWFFLT1_250_spd_075.txt.gz
Wind_Speed
41 41 42 44 47 50 48 44 42 39 33 28 26 26 27 30 30 29 28 26 26 27 25 25 27 28 27 24 21 23 28 31 32 31 30 29 29 28 28 29 29 29 28 28 27 27 26 25 26 27 27 28 29 29 29 30 30 31 32 33 33 33 33
40 40 42 43 46 48 49 45 43 42 37 30 27 27 29 31 32 32 31 27 27 28 27 28 30 30 30 27 24 25 29 32 33 33 31 29 29 28 29 29 28 29 30 29 28 27 27 28 28 29 28 28 28 29 29 29 30 31 32 33 34 34 33
39 40 42 44 45 47 50 48 45 44 42 34 29 28 29 33 35 35 34 31 30 30 28 29 32 32 31 29 26 26 29 31 32 32 30 28 30 30 29 29 29 30 30 30 28 26 27 27 27 28 27 27 27 28 28 28 30 32 33 34 34 34 33
39 39 42 44 46 47 50 50 47 45 45 40 34 30 29 33 38 39 38 35 34 34 32 31 33 33 33 31 27 26 29 31 32 30 27 29 33 32 30 30 30 30 29 28 27 27 27 26 26 26 26 25 26 26 27 28 30 32 34 35 36 35 34
40 41 43 45 47 49 51 52 49 46 46 45 40 35 32 33 38 41 42 41 39 39 38 36 35 35 34 33 30 29 30 31 31 30 28 31 36 35 31 31 31 29 28 27 28 28 28 26 25 25 24 25 26 27 29 31 32 33 35 35 37 37 36
39 42 45 47 49 50 52 53 51 45 43 46 47 42 37 35 37 40 44 46 44 42 41 38 36 36 35 33 32 31 32 33 32 31 31 34 38 37 35 32 31 30 29 28 29 29 29 29 28 28 29 30 31 32 33 33 33 34 36 36 38 39 38
39 40 44 49 51 52 53 54 53 46 39 41 47 47 43 40 38 39 42 46 48 46 43 40 36 34 34 33 32 30 31 33 33 32 34 37 38 39 38 35 32 32 30 29 30 32 32 33 33 33 34 35 37 37 36 34 34 36 38 38 40 40 39
41 40 42 46 51 54 54 54 56 54 45 39 41 46 47 45 43 42 41 44 48 49 46 43 39 35 34 33 32 31 31 33 33 34 37 38 38 39 38 37 34 33 31 29 32 34 34 34 34 34 36 37 38 37 36 36 37 40 41 41 41 41 40
42 42 42 43 48 53 56 57 57 57 55 48 41 39 43 46 46 46 45 44 47 50 47 45 43 40 37 36 34 33 33 33 34 36 37 36 37 38 38 38 36 34 32 31 33 35 35 35 37 38 38 38 38 38 39 40 42 43 42 42 41 40 39
42 42 42 42 45 49 54 59 59 58 57 56 49 39 37 43 46 48 48 46 47 49 47 45 44 42 40 40 38 36 36 36 36 37 35 34 35 37 38 38 37 36 35 33 34 36 37 37 38 39 40 40 40 41 42 43 42 41 40 39 39 38 38
43 43 43 43 44 45 49 54 58 59 57 58 57 47 40 42 46 48 48 46 47 50 49 47 45 44 43 41 39 37 38 39 40 39 35 34 36 37 38 38 37 38 38 37 38 39 39 39 39 39 40 41 41 42 42 41 39 38 38 38 38 37 38
45 46 46 46 45 44 45 48 52 56 56 59 61 55 50 48 46 48 49 46 46 49 51 50 46 44 44 43 40 38 40 43 43 42 39 37 38 40 41 39 38 39 40 40 41 41 40 40 41 41 42 42 42 43 42 40 37 37 38 38 38 37 37
47 47 47 48 48 45 44 44 47 51 55 58 57 54 55 55 49 48 50 46 45 48 52 52 49 45 44 43 41 40 43 46 44 43 42 41 41 42 42 41 41 42 43 43 43 42 42 42 43 44 45 44 45 45 43 41 38 38 38 37 36 35 35
48 48 48 48 47 46 44 41 43 48 54 57 55 51 53 56 51 49 48 46 46 48 51 53 51 48 45 43 40 39 41 46 46 44 44 45 45 45 45 46 46 44 43 44 44 44 43 42 43 45 46 46 46 46 45 43 40 37 36 35 32 32 33
49 49 49 48 47 45 43 41 40 46 53 58 60 57 55 56 53 51 48 45 45 47 50 54 53 51 50 48 45 43 42 44 45 44 44 45 46 48 49 49 48 45 43 43 44 43 41 40 41 42 43 44 45 45 45 42 38 35 34 32 31 31 32
50 49 48 47 46 45 43 40 39 43 50 56 61 61 60 60 56 53 51 47 44 45 46 50 53 54 54 52 51 50 48 46 44 44 45 44 44 46 48 48 47 45 43 43 44 44 42 41 40 41 43 45 46 46 44 40 36 34 34 33 33 33 33
51 50 48 46 44 44 44 40 38 40 45 52 58 59 61 64 60 55 54 50 48 47 44 43 48 52 55 55 54 53 52 51 48 46 45 45 45 46 47 47 47 46 45 44 44 45 45 44 43 42 43 46 48 47 45 40 37 36 36 36 36 37 37
52 50 48 46 42 42 44 42 38 38 40 46 54 56 59 65 64 57 53 52 51 50 47 42 42 46 51 53 53 52 52 53 53 50 48 47 47 49 50 49 49 49 47 46 46 47 47 48 46 44 43 44 45 45 43 41 39 39 40 40 40 42 42
53 50 48 46 42 41 42 42 39 38 38 40 47 54 57 63 67 61 52 51 52 52 52 49 43 44 47 48 48 48 49 52 53 52 50 48 48 49 51 52 51 50 50 50 50 49 50 51 50 48 46 44 42 41 42 43 42 42 42 43 44 45 46
54 51 48 46 42 40 40 41 39 37 36 36 41 50 55 61 69 64 53 51 52 51 54 55 49 46 48 49 47 46 48 51 52 50 48 48 49 50 50 51 51 50 51 53 53 52 53 54 54 52 50 49 46 43 43 44 44 44 44 45 47 47 47
55 52 49 46 42 39 38 39 39 37 36 35 37 46 53 60 68 67 58 54 53 50 53 58 55 49 49 51 49 46 47 50 51 49 49 50 52 53 51 49 49 48 50 53 55 55 55 56 55 54 53 53 51 48 45 44 44 45 46 46 47 48 48
57 54 51 48 44 39 37 37 38 36 34 34 35 42 51 59 67 69 64 60 56 52 54 58 57 52 51 51 50 48 48 50 52 51 51 52 54 54 52 49 47 47 49 53 55 56 57 57 57 56 54 54 53 51 49 48 48 48 46 44 47 51 51
58 56 53 49 45 40 37 36 36 36 34 33 35 39 48 57 65 70 69 65 61 56 55 57 56 55 53 50 47 48 49 53 57 57 55 54 54 55 54 52 49 49 50 52 54 57 58 57 58 58 56 55 56 56 55 55 54 52 50 50 53 56 56
59 57 55 51 47 42 38 36 35 36 34 34 35 38 45 54 62 68 70 69 65 60 57 56 56 57 55 50 46 46 48 52 57 59 60 59 56 56 56 54 52 52 52 52 53 56 58 57 57 57 56 55 56 57 57 57 56 56 57 57 58 59 60
60 59 57 53 48 44 40 37 35 35 35 34 36 39 44 52 59 66 70 71 69 65 60 57 57 59 58 55 51 47 45 47 52 56 60 61 60 59 59 56 53 51 52 53 53 55 58 58 58 57 56 55 56 57 58 57 57 58 58 57 58 61 62
62 61 59 56 51 45 41 38 36 36 35 35 37 40 44 50 57 64 69 70 70 69 65 62 61 62 62 61 59 53 46 44 47 49 53 57 58 59 58 55 51 50 52 54 53 55 58 60 59 57 57 57 58 59 60 60 60 60 59 59 61 63 62
64 63 62 59 54 47 42 39 37 37 37 36 37 40 45 50 56 63 68 70 70 69 68 66 66 66 65 65 64 59 52 50 49 47 49 51 53 54 55 52 50 51 53 55 54 56 58 59 59 58 58 59 60 61 62 62 61 62 62 62 63 63 62
66 66 65 62 58 51 44 40 38 38 39 38 38 40 45 50 55 61 67 70 71 70 69 69 68 69 69 67 65 62 60 61 60 57 55 54 54 54 54 52 50 50 52 55 56 57 59 59 59 59 59 59 60 60 61 60 60 61 62 63 63 63 63
68 68 67 65 62 56 48 42 39 39 40 41 40 41 45 50 54 59 65 70 72 72 71 71 70 70 71 70 68 66 66 66 67 67 64 61 59 58 56 55 53 52 54 57 58 58 59 59 60 60 59 60 60 59 59 59 59 60 62 64 65 65 65
71 70 69 67 64 59 52 45 40 39 41 44 43 43 45 50 54 58 62 67 71 72 72 73 72 72 72 73 72 70 68 67 67 68 67 64 62 61 59 58 57 56 57 60 61 61 61 61 61 62 62 62 62 62 61 60 60 62 63 66 67 68 67
74 73 71 68 64 60 55 49 43 40 41 45 47 46 46 49 54 58 60 64 68 71 71 71 73 73 73 74 74 73 71 69 68 68 67 66 64 64 62 60 59 59 61 63 64 65 65 64 64 65 64 63 64 64 62 62 63 64 65 67 69 69 70
76 74 71 67 64 60 57 52 47 43 41 45 49 50 49 49 53 57 61 63 65 68 70 70 70 71 73 74 74 74 73 72 70 69 68 68 67 67 66 65 64 65 67 68 68 67 67 67 67 67 66 64 65 65 64 63 63 64 66 69 70 70 70
77 73 69 66 62 60 58 55 51 47 43 43 49 53 54 53 53 56 60 63 65 67 68 69 70 70 71 73 74 73 73 73 72 70 70 69 69 69 69 68 68 69 71 71 69 68 67 67 67 66 65 64 65 66 65 64 64 66 68 70 70 70 71
74 70 66 64 61 59 58 57 55 52 48 45 47 53 57 57 57 57 59 62 66 67 68 69 70 70 70 71 72 73 72 72 72 72 71 70 71 71 71 70 70 71 72 72 71 71 70 68 68 67 66 67 68 69 68 67 67 69 71 72 72 72 72
69 66 64 62 60 59 59 58 57 56 53 49 47 50 57 61 61 61 60 62 64 67 68 69 69 71 71 70 71 71 71 71 71 71 71 72 72 73 72 71 71 72 73 73 73 73 73 72 71 71 71 71 72 72 72 71 72 73 73 73 73 74 74
66 64 63 61 60 60 60 59 59 58 57 55 51 50 54 60 64 65 64 64 65 66 68 70 70 71 71 71 71 71 70 69 69 70 72 73 74 75 74 73 73 73 73 75 76 75 74 74 73 73 72 73 74 75 75 74 75 75 75 76 76 75 75
67 66 64 63 63 62 61 61 61 61 60 59 57 54 53 57 64 67 68 68 68 68 68 69 71 72 72 72 72 72 70 68 68 70 72 73 74 76 75 74 73 73 74 76 76 75 75 74 73 72 71 72 73 74 74 75 76 76 76 76 76 77 77

ECMWFFLT1_250_spd_078.txt.gz
Wind_Speed
46 43 41 40 40 41 42 43 45 47 49 52 53 51 51 47 42 40 39 41 43 39 36 36 35 35 35 33 32 32 31 29 30 30 29 28 27 26 25 25 26 24 22 22 23 23 23 24 26 29 30 32 32 31 30 30 29 27 25 23 23 25 26
45 42 40 39 39 40 41 42 42 44 48 52 52 52 51 48 42 39 38 40 43 38 35 35 36 36 36 35 34 34 32 31 32 31 30 29 27 28 28 28 29 27 25 24 22 22 24 25 28 30 31 30 29 29 28 28 27 25 23 22 24 26 27
44 41 40 39 38 38 39 40 39 40 44 47 48 48 48 45 39 37 37 40 43 40 36 34 35 36 37 37 37 36 34 33 32 32 31 29 28 30 30 30 30 30 30 26 21 22 24 26 28 30 31 29 26 26 26 25 24 23 23 25 28 30 29
42 40 39 39 38 38 38 38 38 38 41 43 44 44 45 43 39 36 38 41 44 42 39 36 35 36 37 39 40 40 38 34 33 32 32 30 29 31 33 33 34 34 34 29 24 24 26 27 28 30 32 29 26 25 24 24 25 27 29 31 33 32 31
42 39 39 39 38 38 38 38 38 37 39 41 42 42 43 45 42 39 39 42 45 44 42 39 37 37 39 40 42 42 41 37 34 34 34 33 32 33 35 35 35 34 33 32 29 27 27 28 29 30 31 29 27 26 27 28 31 32 32 33 32 32 32
41 40 39 39 38 37 37 37 38 38 39 40 41 41 42 45 44 42 41 44 45 44 43 42 41 39 38 40 42 43 42 40 37 36 35 34 34 35 36 36 35 33 32 33 33 31 30 30 30 31 31 29 29 31 31 32 32 31 32 32 32 33 33
42 41 40 39 38 37 36 37 37 39 41 41 41 41 43 46 45 43 43 44 45 45 42 43 44 43 40 39 41 41 41 41 40 39 37 35 34 36 38 38 36 33 31 32 34 34 33 33 32 32 31 30 30 32 33 32 32 33 35 35 35 35 35
43 42 41 40 39 38 37 37 38 40 42 43 42 41 43 48 49 45 43 43 46 46 43 42 44 45 44 42 41 40 40 41 41 40 40 39 37 37 38 39 36 33 32 34 37 37 36 35 34 33 32 31 31 33 34 34 35 37 37 37 36 36 37
43 42 42 41 40 39 39 39 40 41 42 44 45 44 44 48 51 49 43 43 46 46 45 43 41 42 44 45 44 42 41 40 41 41 40 40 38 37 38 38 36 35 35 37 38 38 37 36 36 35 35 35 35 36 36 36 37 37 37 37 36 37 38
43 43 43 43 42 41 41 41 41 42 42 43 45 47 46 46 50 51 46 41 44 47 47 45 42 40 42 45 46 46 44 42 41 41 40 39 37 36 36 37 37 36 37 37 37 38 38 39 39 38 38 39 39 38 37 37 38 38 38 38 38 39 40
44 44 44 44 43 42 42 42 41 42 42 41 42 45 48 48 48 51 51 44 41 44 48 48 46 42 41 43 46 47 48 48 44 41 41 40 39 38 37 36 38 39 38 39 39 40 41 41 41 40 39 39 39 39 38 38 38 39 39 39 39 40 41
45 45 45 45 44 43 42 42 41 42 42 41 40 41 45 49 48 50 56 53 46 43 46 50 49 46 43 43 43 45 47 50 47 44 43 42 41 41 39 39 40 41 41 43 43 43 43 42 41 40 40 40 41 41 40 39 38 39 38 38 38 39 40
46 46 46 45 44 43 42 42 42 43 43 43 41 39 42 46 49 49 55 60 57 48 45 48 51 49 47 45 44 46 48 48 46 45 45 43 42 41 40 41 44 43 42 44 46 46 45 44 43 43 44 43 44 44 43 40 37 37 36 35 36 38 38
47 47 46 45 44 43 42 42 42 43 44 45 43 40 40 44 48 49 52 60 62 55 48 47 49 51 51 49 46 47 49 47 46 47 46 43 41 40 40 42 45 46 43 43 45 47 47 46 46 47 47 46 47 47 46 43 39 36 36 37 37 39 40
48 48 47 46 45 43 43 43 43 43 45 46 44 41 40 42 46 49 51 56 60 59 55 50 49 51 54 54 51 48 48 49 48 49 50 47 44 42 42 44 46 47 46 44 45 47 47 47 48 48 48 48 48 49 48 46 42 38 39 41 40 40 41
49 48 48 47 45 44 43 43 43 44 46 47 46 42 39 40 45 48 51 55 57 59 62 59 53 51 53 56 55 51 49 51 51 50 51 51 49 47 44 44 46 48 47 46 46 46 47 47 48 49 51 50 50 49 48 46 44 42 42 43 43 42 42
50 49 49 48 47 45 44 43 44 45 46 47 47 44 39 37 42 47 51 56 58 60 65 68 62 56 54 55 56 54 51 52 53 52 50 49 50 49 45 43 45 46 47 47 47 46 47 48 49 51 52 51 50 49 47 45 46 45 44 44 44 43 42
51 50 50 49 48 47 45 45 45 46 46 47 47 46 42 37 38 45 50 55 60 62 65 70 69 61 56 57 57 55 53 52 53 53 52 49 48 46 43 42 43 43 44 45 46 45 46 47 49 50 49 49 49 48 47 47 47 47 47 47 47 46 45
53 52 52 51 50 49 47 46 46 47 47 47 48 47 45 40 36 40 49 54 60 63 64 66 68 64 59 59 60 57 54 53 53 52 52 51 50 47 46 46 45 44 44 45 45 46 45 45 46 47 48 48 49 49 50 50 48 47 48 49 50 49 47
54 54 54 53 52 51 50 48 48 48 48 46 47 48 47 43 37 36 44 53 60 64 64 64 64 64 64 62 60 59 57 56 55 54 53 53 52 50 49 51 51 50 49 48 48 49 49 48 48 49 49 50 51 53 53 50 49 49 49 50 51 50 49
56 56 56 55 53 53 52 51 50 50 49 46 46 48 47 46 40 34 38 50 60 66 67 65 64 65 67 66 62 60 60 58 55 55 56 57 55 53 51 52 53 54 54 52 49 48 49 50 52 53 52 53 55 56 54 50 49 51 52 52 52 53 53
57 57 57 56 55 55 54 53 52 51 50 48 46 46 47 47 44 36 35 44 56 67 71 68 66 65 67 68 64 61 61 60 57 54 54 56 56 54 52 54 55 56 56 54 50 49 50 51 55 56 54 54 55 56 54 51 50 52 54 54 53 54 55
59 59 59 58 57 57 56 55 55 54 52 50 46 45 45 47 46 40 35 39 50 64 74 74 69 67 68 69 67 63 61 61 60 56 53 54 54 51 50 52 55 56 58 56 53 53 52 52 54 56 54 53 54 54 54 53 51 52 55 55 56 57 57
60 60 60 59 58 58 58 57 57 56 55 53 49 45 44 45 47 43 37 37 45 58 72 78 74 70 70 71 69 66 63 62 61 58 54 54 55 52 49 50 52 54 56 56 56 55 53 52 52 52 52 52 53 54 54 53 52 53 55 56 58 59 58
62 62 61 61 60 59 59 59 60 59 58 56 53 48 44 43 45 45 40 37 43 53 66 77 79 73 70 71 71 69 67 65 64 60 55 57 60 57 51 49 50 52 55 56 57 59 58 56 54 52 51 51 52 53 53 53 54 55 56 57 58 59 57
63 63 63 63 62 62 62 62 62 62 60 59 56 52 47 43 44 46 44 39 42 51 62 73 80 77 72 70 70 69 69 68 68 65 61 61 63 61 55 51 50 51 54 57 58 59 62 62 61 58 56 54 53 53 53 54 56 58 58 58 58 58 58
65 65 65 65 65 65 65 65 65 65 63 62 60 56 52 46 43 45 46 42 41 49 59 70 79 81 76 71 69 69 69 69 71 70 68 65 64 63 61 57 53 52 54 56 57 57 59 62 63 63 62 60 57 56 56 57 57 58 58 59 59 59 61
67 67 67 68 68 68 68 68 68 68 66 65 63 60 56 51 46 45 46 45 43 47 57 67 77 83 81 74 70 70 68 68 70 72 73 70 65 63 64 62 58 57 57 59 61 61 61 61 61 62 63 62 59 59 60 59 58 58 58 59 59 60 63
69 70 70 71 71 71 71 71 71 71 70 68 66 63 60 56 49 45 46 47 46 47 54 65 75 83 85 79 74 71 68 68 70 72 74 73 67 63 64 64 62 60 60 60 62 64 64 64 63 63 63 61 60 61 62 61 59 59 58 58 59 62 65
72 73 73 73 73 74 74 74 73 73 72 71 69 67 64 59 52 47 47 48 48 48 53 61 71 80 87 86 80 75 69 67 70 73 75 75 71 65 65 64 61 59 58 58 59 60 61 62 62 62 60 59 60 63 63 62 61 60 59 59 60 63 65
75 75 75 76 76 76 76 76 76 75 75 74 73 71 68 62 54 48 47 49 50 50 52 59 67 76 85 90 88 82 75 70 69 72 75 76 74 70 68 65 62 59 57 56 57 58 58 59 59 59 58 59 61 62 62 62 62 61 61 60 61 63 65
77 77 78 78 79 79 78 78 78 78 77 77 76 73 69 62 55 48 47 50 51 52 53 57 64 72 80 88 92 90 85 78 73 72 74 76 76 75 74 70 66 63 60 57 57 58 58 58 59 58 58 60 61 62 62 64 65 64 63 62 61 62 64
79 80 80 81 81 81 81 81 81 80 80 79 76 72 66 61 55 49 48 50 52 53 55 57 62 69 75 83 90 94 92 88 82 77 75 76 76 77 78 76 72 68 65 62 61 60 60 61 62 61 61 62 63 64 65 66 67 67 67 67 65 63 64
81 82 83 83 84 84 84 84 83 82 80 76 72 67 62 58 55 50 48 50 53 54 56 59 62 67 73 78 85 92 95 94 90 85 81 79 78 78 79 79 76 74 72 70 69 68 66 67 67 65 64 65 65 66 67 67 67 68 68 68 67 66 67
84 85 85 86 86 87 86 85 82 79 75 70 66 63 60 58 55 52 50 50 53 55 57 60 63 66 71 76 81 87 92 95 95 92 88 85 83 81 80 79 77 77 77 77 77 76 75 75 75 72 71 70 68 67 68 69 68 68 68 69 70 71 72
87 87 88 88 87 86 84 81 77 74 70 67 64 62 61 59 58 56 53 51 53 56 58 61 64 67 71 75 79 83 88 92 95 95 94 91 88 86 84 82 80 80 80 79 79 79 80 80 80 78 76 74 72 71 71 71 70 69 69 71 73 75 75
89 89 88 86 84 82 80 77 75 73 71 69 68 66 64 63 62 61 58 55 55 57 59 61 64 68 71 75 79 82 85 88 92 94 95 95 93 90 89 88 86 84 83 81 80 80 80 81 81 80 77 76 75 74 75 75 74 73 72 71 73 75 76

ECMWFFLT1_250_spd_084.txt.gz
Wind_Speed
71 71 71 71 72 73 73 73 74 74 74 73 71 68 64 60 54 49 45 44 43 42 40 37 36 38 36 34 34 33 30 28 30 32 31 29 27 29 33 34 36 36 34 33 33 32 32 32 31 30 29 29 29 26 23 21 18 16 17 17 16 14 13
73 73 73 73 74 74 75 75 74 73 72 71 68 64 61 58 53 49 46 45 43 41 40 40 40 40 40 39 39 40 38 33 33 34 34 32 27 28 32 34 37 37 35 35 35 34 33 32 31 30 30 31 30 28 25 23 20 18 18 17 17 16 15
75 75 76 75 75 75 75 74 73 72 69 67 64 61 58 55 52 49 47 45 44 42 41 40 40 40 41 42 43 44 44 41 39 39 38 35 31 30 32 34 37 38 37 36 37 36 34 32 32 32 32 31 30 30 28 25 23 21 20 19 18 18 18
74 75 75 75 75 74 73 72 70 68 65 63 61 58 56 54 51 48 47 45 44 43 43 41 40 39 39 40 42 43 45 45 45 44 42 38 34 33 32 34 37 39 38 37 38 38 35 32 33 34 33 31 30 31 31 28 26 25 23 22 21 21 21
71 72 73 73 72 71 70 68 66 64 62 60 57 56 54 52 50 48 47 46 45 44 43 43 42 41 41 39 39 42 44 45 48 48 44 41 38 36 34 34 37 39 38 37 38 39 38 34 34 35 34 32 31 32 32 32 31 29 28 27 25 23 23
69 69 69 69 68 67 65 64 62 60 58 57 54 53 51 50 49 48 47 46 45 44 44 44 43 43 42 41 40 40 43 45 48 50 48 45 43 41 38 36 37 38 37 36 37 39 39 36 35 37 35 34 34 33 34 35 33 31 32 32 29 27 25
65 65 64 63 62 62 61 60 58 57 55 54 52 50 49 48 48 48 47 47 46 45 44 44 43 43 42 43 42 40 41 43 47 49 50 50 47 44 42 41 42 42 39 38 39 39 40 38 37 38 37 37 36 34 36 38 37 36 36 35 33 31 28
61 59 58 57 57 57 57 56 55 54 53 52 50 49 48 48 47 47 47 47 46 45 45 44 43 43 42 42 43 42 40 41 45 48 48 50 50 45 42 43 46 47 46 44 44 42 41 40 39 38 38 38 38 37 38 40 41 41 40 37 36 35 32
57 55 55 54 54 53 53 52 52 52 51 50 49 49 48 48 47 47 47 47 46 45 45 45 44 43 43 42 43 43 42 40 43 49 48 48 51 46 41 43 45 47 47 46 45 43 41 41 40 39 39 39 39 39 38 40 42 43 41 39 38 38 36
55 54 54 53 52 51 50 50 50 50 49 49 49 49 48 48 47 47 47 47 46 46 45 45 45 45 44 43 43 44 44 42 41 48 51 49 51 48 42 43 46 46 46 44 43 43 42 42 40 39 38 39 40 40 41 42 43 42 41 40 40 40 39
56 56 55 53 51 50 49 49 49 49 49 48 49 49 48 48 47 47 48 48 47 46 46 46 46 46 45 44 44 44 45 44 42 45 51 52 52 50 43 42 45 46 45 44 43 43 43 42 41 39 37 38 41 42 43 45 44 42 41 41 41 41 40
56 55 54 53 51 50 50 49 49 49 49 48 49 49 49 48 47 48 48 48 48 47 47 47 46 46 45 44 44 44 44 45 43 43 49 54 54 51 46 41 43 46 45 44 42 42 42 41 41 40 38 38 42 44 44 45 45 44 42 42 42 40 40
55 54 53 52 51 51 50 50 49 49 49 49 50 50 49 48 48 48 49 49 49 49 49 48 46 46 46 45 45 44 43 44 44 43 46 54 56 54 50 44 44 46 47 45 43 42 42 41 41 40 39 40 43 45 44 44 46 45 43 43 43 42 41
54 53 53 52 52 51 51 51 50 50 50 50 51 51 50 49 48 49 49 49 49 50 50 49 47 46 46 46 45 44 43 43 44 44 45 52 58 57 54 50 47 47 48 48 48 46 45 44 43 41 40 42 44 45 45 45 47 46 43 45 46 44 42
53 53 53 53 53 53 53 53 52 51 51 51 52 52 51 50 50 49 50 50 50 51 51 50 49 48 47 46 46 45 44 42 43 44 45 50 57 59 57 55 51 48 48 49 50 51 49 47 46 44 43 43 44 45 46 46 47 47 45 47 47 44 43
54 55 54 55 55 55 55 54 53 52 52 52 52 53 53 52 51 51 50 50 50 51 52 51 50 49 48 47 47 46 45 42 42 43 45 48 55 60 60 57 54 50 49 49 50 50 49 48 47 45 44 45 45 46 47 47 48 48 47 47 47 45 44
57 56 56 57 58 57 56 54 53 53 52 52 53 53 53 53 53 52 51 51 51 52 53 52 51 50 49 48 48 47 46 43 41 42 44 47 52 59 61 59 56 53 52 51 50 50 51 49 48 46 45 45 46 47 48 48 49 50 49 48 48 47 45
58 58 58 58 57 56 55 54 53 53 53 53 53 53 54 54 53 53 52 51 51 52 52 52 51 51 50 49 48 48 47 45 42 40 43 46 50 56 62 63 60 57 55 55 53 52 52 53 52 50 48 47 48 48 49 49 50 50 49 48 47 47 47
59 58 57 56 55 55 55 54 54 53 53 53 54 54 54 54 54 53 53 52 52 52 53 52 51 51 51 50 49 48 48 47 44 40 40 44 48 54 61 65 65 61 59 59 58 56 54 55 55 53 51 52 52 51 49 49 49 49 48 48 47 48 49
59 58 56 55 56 56 56 56 55 55 54 54 54 54 55 55 55 54 54 53 53 53 53 52 51 51 52 52 51 50 49 48 46 42 39 41 45 51 58 65 68 66 63 61 62 61 58 56 55 53 52 55 56 55 52 51 51 50 48 48 48 49 51
59 57 57 58 58 58 57 57 56 56 56 55 55 55 55 55 55 55 54 54 54 55 54 53 51 51 52 52 53 52 51 49 48 46 42 40 42 47 54 62 68 70 67 63 62 64 61 57 56 55 55 56 58 58 58 57 57 55 52 51 51 51 52
58 58 59 60 59 58 57 57 56 56 56 56 56 56 56 56 56 56 56 56 56 55 55 54 52 52 52 53 54 54 53 51 50 49 46 42 41 43 49 58 66 70 70 66 64 65 64 61 59 59 59 59 59 59 60 61 60 58 56 55 54 53 53
59 60 60 60 59 58 58 57 57 57 57 57 57 56 57 57 57 57 57 57 57 57 56 55 54 53 53 54 55 56 55 55 53 51 49 46 43 42 45 53 64 71 72 69 66 65 64 63 63 64 64 63 62 61 61 61 61 60 59 58 57 56 55
61 61 60 59 59 59 58 58 57 57 57 57 57 57 58 58 58 58 59 59 59 58 58 57 56 56 55 55 56 57 57 57 56 54 51 49 47 44 43 48 59 70 74 71 69 68 66 64 65 67 69 68 66 63 62 61 61 61 60 59 58 57 56
62 61 60 60 60 60 59 58 58 57 57 57 58 58 59 59 59 60 60 60 60 60 60 60 59 59 58 58 57 58 58 58 58 57 55 53 51 48 45 45 52 66 76 76 72 71 70 68 67 68 70 72 70 68 64 61 61 61 59 58 59 58 57
62 62 62 61 61 61 59 59 58 58 58 58 58 58 59 60 60 61 62 62 62 63 63 63 63 62 61 61 60 60 60 60 60 60 59 57 54 52 49 47 48 58 73 80 78 75 73 73 71 70 69 70 71 69 66 62 61 61 60 59 60 59 56
63 63 63 63 63 62 60 60 60 60 60 60 60 60 60 61 61 62 63 63 64 65 65 65 65 65 64 64 64 63 63 62 62 61 61 60 58 55 53 51 49 52 64 78 83 80 77 76 76 75 72 70 70 70 68 65 63 62 62 61 61 59 56
64 64 64 65 64 63 61 61 61 61 61 62 62 62 62 63 63 64 64 65 65 66 67 67 67 68 67 67 66 66 65 65 65 64 63 63 62 59 56 54 52 51 57 70 82 85 82 79 79 79 77 75 73 72 70 69 67 65 64 62 61 60 58
64 65 65 65 65 64 63 63 63 63 63 63 64 64 64 65 65 66 66 67 68 68 69 69 69 70 70 70 69 69 69 68 68 67 66 66 65 63 60 58 56 54 55 62 75 85 87 83 81 80 80 78 76 75 74 72 70 69 67 65 63 63 62
64 65 66 66 66 66 66 66 66 66 66 66 66 66 66 67 67 68 69 69 70 71 71 72 72 72 73 73 73 72 72 72 71 71 70 69 68 67 65 62 60 58 57 58 67 80 88 88 84 82 81 80 78 77 78 77 75 73 71 69 68 68 66
65 66 66 66 67 67 69 69 69 69 69 69 69 69 70 70 70 71 71 72 73 74 75 76 76 76 76 76 76 76 75 75 74 74 74 73 71 70 68 66 64 62 61 60 63 73 85 89 87 85 84 82 79 79 80 80 79 78 75 73 72 70 68
65 66 66 67 68 69 71 71 72 72 72 72 73 73 73 73 74 74 75 76 77 78 79 79 80 81 81 81 81 80 79 79 78 77 77 76 74 72 70 69 67 66 65 63 63 69 80 88 90 88 86 84 82 81 81 81 81 80 79 77 75 72 69
66 66 67 68 70 71 72 73 74 74 74 75 75 75 76 76 77 78 78 79 80 80 81 83 83 84 84 84 84 84 83 82 81 80 79 78 77 75 72 71 70 69 68 67 65 67 75 85 91 91 89 87 86 85 84 83 81 80 79 78 77 75 71
67 68 69 71 72 73 74 75 75 76 76 76 77 78 79 79 80 80 81 82 82 82 83 83 84 84 84 84 83 83 82 82 80 80 79 78 77 76 74 72 71 71 70 69 68 68 72 81 89 93 91 90 89 89 88 86 83 81 79 77 77 76 73
69 71 72 73 74 75 75 75 76 77 78 79 79 80 81 82 82 83 82 82 81 81 80 80 80 80 80 79 79 79 79 78 77 76 75 75 74 73 73 71 70 71 71 70 69 69 71 78 86 92 92 91 90 90 89 88 86 83 81 79 77 74 73
71 72 73 74 74 75 76 76 77 78 80 81 82 83 83 83 82 81 80 79 78 77 76 76 76 76 75 74 74 74 74 74 74 73 72 72 72 71 70 69 69 69 70 70 69 69 71 75 83 90 92 91 90 88 87 87 86 85 84 82 79 77 75
72 72 73 73 74 76 77 78 79 81 82 83 83 83 82 81 80 79 77 76 74 73 72 72 72 71 70 68 67 67 67 68 69 69 68 68 69 69 69 68 68 67 68 68 68 69 70 74 81 88 92 90 89 87 85 84 83 83 83 82 81 79 78

ECMWFFLT1_250_spd_087.txt.gz
Wind_Speed
66 67 67 68 68 68 69 69 69 70 70 70 70 71 71 71 71 70 68 67 65 63 61 59 56 55 53 49 45 43 41 39 37 37 39 38 36 37 36 36 35 36 36 35 35 33 31 31 32 32 31 31 29 27 26 28 29 27 25 24 21 19 18
67 68 68 68 69 70 70 70 70 71 71 71 71 70 70 69 69 68 67 65 62 61 59 57 55 54 52 49 45 42 40 39 39 39 40 40 39 39 38 37 37 37 37 37 37 35 33 32 32 32 32 31 32 31 29 28 29 28 27 27 24 21 20
68 68 69 69 69 70 70 70 70 70 69 69 68 68 67 66 65 64 62 60 58 57 56 54 52 51 50 48 46 43 40 38 39 40 41 42 42 43 41 39 39 38 37 37 37 36 35 34 33 32 32 33 34 33 31 30 30 30 29 29 27 24 22
67 67 68 68 68 68 68 67 66 66 65 64 64 63 63 62 61 59 57 56 54 54 53 52 50 50 49 48 46 44 41 39 38 38 40 41 43 46 47 45 42 40 39 38 38 38 37 35 34 34 33 33 35 34 32 32 32 32 31 30 29 27 24
65 65 65 65 65 65 64 63 62 62 61 61 60 60 60 59 57 55 54 53 52 52 51 50 49 48 48 47 46 45 42 40 38 38 39 40 41 43 47 50 49 45 43 41 40 40 39 37 36 37 36 35 36 36 34 33 33 33 32 30 30 29 28
63 63 63 62 62 62 62 61 61 60 60 59 58 58 57 56 54 53 52 51 51 50 50 49 48 48 47 46 46 45 43 41 39 39 38 39 39 40 42 48 52 51 46 44 44 42 41 40 38 38 37 36 37 39 36 34 35 35 34 32 30 30 30
62 62 63 63 62 61 61 60 60 59 58 57 57 56 55 54 53 52 50 50 50 50 49 48 47 47 47 46 46 45 44 42 40 39 39 38 38 39 39 42 48 53 52 48 47 45 43 41 39 39 39 37 38 39 38 36 36 36 36 34 30 31 32
61 62 63 62 62 61 61 60 58 57 56 56 56 55 54 54 53 51 50 49 49 49 49 48 47 47 47 47 46 46 45 43 41 40 39 38 38 38 38 39 42 48 53 53 50 47 46 43 39 39 40 38 37 38 38 38 37 38 38 35 32 33 35
59 59 60 60 60 60 60 58 57 56 56 55 55 56 56 55 54 52 50 49 49 49 49 48 48 48 47 47 47 46 45 44 43 41 39 38 38 38 37 38 39 42 48 54 54 50 48 46 42 40 39 38 37 38 39 38 37 40 40 37 35 36 36
57 57 58 59 59 59 58 58 57 57 57 56 56 57 57 56 55 54 52 51 49 49 49 49 49 49 48 48 47 47 46 45 44 42 40 39 38 38 38 37 38 40 43 50 56 54 49 47 45 43 42 41 40 40 40 39 39 42 42 40 38 38 37
56 57 58 59 60 59 58 58 59 59 58 58 58 57 57 56 55 54 53 52 51 50 49 49 49 49 49 49 48 47 47 46 46 44 41 40 39 39 39 38 37 39 41 44 52 56 53 49 47 47 47 46 46 43 41 40 41 43 44 42 42 41 39
58 58 59 59 60 59 59 60 60 60 60 60 60 59 57 56 54 53 52 52 51 51 50 50 50 51 51 50 50 49 47 46 46 45 43 41 40 39 40 39 38 38 40 42 47 54 54 51 49 49 48 48 49 47 44 42 41 43 45 44 44 44 42
59 59 59 59 59 60 61 62 62 62 62 62 61 60 58 55 52 51 51 52 52 51 51 51 51 52 52 52 51 50 49 47 46 46 45 43 41 40 40 41 39 38 39 42 46 51 53 52 50 49 48 48 48 47 46 45 42 42 44 44 43 43 42
60 60 60 60 60 61 63 63 63 63 63 62 60 58 56 53 52 52 52 52 52 52 51 52 52 52 53 53 53 52 50 49 47 46 46 45 43 41 40 41 40 39 39 42 45 50 53 52 50 49 49 49 49 47 47 47 44 42 44 44 43 43 42
61 61 61 61 62 63 64 64 63 63 62 60 58 56 55 55 55 55 54 53 52 52 52 52 53 53 53 54 54 53 52 51 49 47 46 45 44 43 41 41 41 39 39 42 45 50 53 53 50 51 51 51 51 50 49 48 47 45 44 44 44 44 45
63 62 62 63 63 63 63 62 62 62 61 59 58 57 57 57 57 56 54 52 51 51 52 52 53 53 54 55 55 55 54 52 51 49 46 45 45 44 43 41 41 40 39 41 45 50 54 55 53 52 53 53 52 53 51 50 49 48 47 47 46 46 47
63 63 63 63 63 62 62 61 62 62 61 61 59 59 58 58 57 55 53 52 52 52 52 52 53 53 54 55 55 56 55 54 53 50 48 46 45 45 44 43 41 41 40 41 44 49 54 56 56 54 55 56 55 54 54 52 51 50 50 50 49 47 47
61 61 61 61 61 61 61 61 62 62 63 62 60 59 59 58 57 55 55 55 54 54 54 53 54 54 54 55 55 56 57 56 55 52 49 47 46 46 46 45 43 41 41 41 43 48 53 57 58 57 56 57 57 56 55 54 53 51 51 52 52 50 47
58 59 59 60 60 60 60 61 62 63 63 62 61 60 60 58 57 58 57 57 56 56 55 55 55 55 55 55 56 56 57 57 57 55 52 49 47 46 47 46 45 43 42 41 42 46 52 58 60 60 59 58 58 58 57 57 56 55 53 54 55 53 50
57 57 58 59 60 60 61 62 63 63 63 62 61 60 59 59 59 59 59 58 57 56 55 55 55 55 55 56 56 56 57 57 57 57 55 52 49 48 48 48 47 45 43 43 42 44 50 57 61 63 63 62 60 60 60 59 58 57 56 56 57 55 52
54 55 56 57 58 60 61 62 62 62 62 61 61 60 60 61 61 60 59 58 57 56 56 56 56 56 56 56 57 57 57 58 58 57 56 54 52 51 51 50 49 47 45 44 43 43 46 55 62 64 64 64 62 61 60 59 58 58 57 57 57 56 54
54 54 54 54 56 57 59 59 60 60 60 61 62 62 63 63 62 61 60 58 57 57 57 57 56 56 57 57 58 58 58 58 59 58 58 57 55 54 54 53 52 50 48 46 45 44 44 51 61 65 65 65 65 63 61 60 60 59 58 57 57 57 56
54 54 54 54 55 55 56 57 58 59 61 62 63 64 65 65 63 62 61 60 59 58 58 58 58 57 58 58 59 60 60 60 60 60 60 59 59 58 57 56 55 53 51 48 47 46 45 47 56 65 68 66 67 67 64 62 63 63 61 60 59 59 57
54 54 54 55 56 56 57 59 60 62 63 64 65 66 66 65 64 63 63 62 61 60 60 59 59 59 59 59 60 61 62 62 62 62 62 62 62 61 60 60 59 57 55 52 49 48 47 46 50 61 71 71 69 71 69 66 67 68 67 65 63 61 60
56 56 57 57 58 60 61 62 63 64 65 66 67 67 66 66 65 65 64 63 63 62 62 61 61 61 61 61 62 62 63 64 65 65 65 65 64 64 64 64 63 61 59 56 53 51 50 49 48 54 67 75 74 73 73 71 69 70 70 68 64 63 62
58 59 59 60 61 62 63 64 65 65 66 67 67 68 68 67 67 66 66 65 65 64 64 64 63 63 63 63 64 64 65 66 67 67 68 68 68 67 67 67 66 65 63 60 57 54 53 52 50 50 59 72 78 77 75 75 73 71 71 69 65 63 63
58 59 59 60 61 62 63 64 65 66 67 67 68 69 69 68 68 67 67 67 66 66 66 66 66 66 65 65 66 66 67 67 68 69 70 71 71 70 70 69 69 68 67 64 61 58 56 55 54 52 53 63 76 81 79 77 76 74 72 71 69 67 66
57 58 59 59 60 61 63 64 65 67 68 68 69 69 69 69 69 68 68 68 68 68 68 69 69 69 69 69 69 69 69 70 70 71 72 73 73 73 73 72 71 71 70 69 66 62 59 57 56 56 54 56 67 80 84 80 78 77 74 72 72 71 69
56 57 58 60 61 62 64 66 67 67 68 69 69 69 69 69 69 70 70 70 71 71 71 71 72 72 72 72 72 72 72 72 73 73 74 74 75 76 76 75 75 74 73 72 70 67 63 60 59 58 57 56 60 72 84 86 82 80 77 75 74 74 72
56 57 59 60 62 64 65 66 67 67 68 68 68 69 69 70 71 71 72 73 73 74 74 74 74 74 74 74 74 75 75 76 75 76 76 76 76 77 78 78 78 78 77 75 74 71 67 64 62 61 60 59 58 63 77 89 89 84 81 79 77 76 74
57 58 60 61 63 64 65 66 67 67 68 68 69 69 71 72 73 74 74 75 76 76 76 76 77 76 76 76 76 77 77 78 79 79 79 79 78 78 79 79 80 80 80 79 77 75 72 68 66 64 62 61 61 60 69 84 91 89 85 84 81 78 78
58 59 61 62 63 65 65 66 67 67 68 69 70 71 73 74 75 76 77 77 77 78 78 78 78 78 78 78 79 79 79 81 82 82 82 83 82 80 79 79 80 80 80 81 80 78 76 73 69 68 66 63 63 63 65 76 88 91 89 86 84 81 79
59 60 62 63 63 64 65 66 67 68 69 70 72 74 75 76 77 78 78 78 79 79 80 80 80 80 80 80 80 80 80 80 81 82 82 83 83 82 79 78 78 79 79 80 81 80 78 76 73 71 69 66 65 66 67 70 80 90 91 88 86 83 80
60 61 62 63 63 64 66 67 68 70 71 73 74 76 77 77 78 78 79 79 80 81 81 81 81 81 80 79 78 78 77 77 78 78 79 80 81 80 79 76 75 75 76 77 79 80 79 77 75 73 72 70 68 69 70 69 73 83 92 92 89 86 82
60 61 62 63 64 66 67 69 70 72 73 75 76 77 78 78 79 80 80 81 81 81 81 80 79 78 77 76 75 74 73 72 72 73 74 76 77 76 76 74 72 71 72 73 74 76 77 77 76 74 73 72 71 71 72 71 71 75 86 94 94 89 85
61 62 63 65 66 68 70 71 72 73 74 75 76 77 78 79 80 81 82 81 81 80 79 77 76 74 73 72 70 69 68 67 67 67 68 69 71 72 70 69 68 67 67 69 70 71 73 74 74 74 74 73 73 73 73 73 73 72 77 88 96 95 89
62 63 65 67 69 70 71 72 73 73 74 75 77 78 80 80 81 80 80 79 78 78 77 75 73 71 69 68 66 65 64 64 63 62 62 63 65 66 65 64 63 61 62 64 65 66 69 71 71 71 73 73 74 75 75 74 74 72 73 80 92 98 95